Weather History for KSTC - September, 2012

Change the Weather History Date:

Saturday, September 8, 2012

  Actual Average Record
Temperature  
Mean Temperature 59 °F 62 °F  
Max Temperature 75 °F 74 °F 102 °F (1931)
Min Temperature 42 °F 50 °F 34 °F (1995)
Degree Days  
Heating Degree Days 6 5  
Month to date heating degree days 14 32  
Since 1 July heating degree days 45 90  
Cooling Degree Days 0 2  
Month to date cooling degree days 30 16  
Year to date cooling degree days 721 445  
Growing Degree Days 8 (Base 50)    
Moisture  
Dew Point 44 °F    
Average Humidity 64    
Maximum Humidity 96    
Minimum Humidity 31    
Precipitation  
Precipitation 0.00 in 0.12 in 3.62 in (1985)
Month to date precipitation 0.09 1.05  
Year to date precipitation 21.58 20.63  
Snow  
Snow 0.00 in 0.00 in 0.00 in ()
Month to date snowfall 0.0 0.0  
Since 1 July snowfall 0.0 0.0  
Since 1 September snowfall 0.0 0.0  
Snow Depth 0.00 in    
Sea Level Pressure  
Sea Level Pressure 29.99 in    
Wind  
Wind Speed 10 mph (NW)    
Max Wind Speed 25 mph    
Max Gust Speed 33 mph    
Visibility 10 miles    
Events      
T = Trace of Precipitation, MM = Missing Value Source: NWS Daily Summary

Daily Weather History Graph

Daily Weather History Graph

Search for Another Location

Airport or City:

Trip Planner

Search our weather history database for the weather conditions in past years. The results will help you decide how hot, cold, wet, or windy it might be!

Date:

Astronomy

Sep. 08, 2012 Rise Set
Actual Time 6:46 AM CDT 7:39 PM CDT
Civil Twilight 6:16 AM CDT 8:09 PM CDT
Nautical Twilight 5:40 AM CDT 8:45 PM CDT
Astronomical Twilight 5:02 AM CDT 9:23 PM CDT
Moon No Moon Rise 2:50 PM CDT (9/8)
Length of Visible Light 13h 53m
Length of Day
12h 53m
Waning Gibbous, 48% of the Moon is Illuminated
Sep 8
Waning Gibbous
Sep 15
New
Sep 22
First Quarter
Sep 29
Full
Oct 8
Last Quarter

Hourly Weather History & Observations

Time (CDT) Temp. Windchill Dew Point Humidity Pressure Visibility Wind Dir Wind Speed Gust Speed Precip Events Conditions
12:53 AM 48.0 °F - 43.0 °F 83% 30.06 in 10.0 mi WNW 5.8 mph - N/A   Clear
1:53 AM 48.0 °F - 44.1 °F 86% 30.06 in 10.0 mi Calm Calm - N/A   Clear
2:53 AM 46.0 °F - 43.0 °F 89% 30.06 in 10.0 mi Calm Calm - N/A   Clear
3:53 AM 46.0 °F - 43.0 °F 89% 30.06 in 10.0 mi Calm Calm - N/A   Clear
4:53 AM 43.0 °F 41.3 °F 41.0 °F 93% 30.04 in 10.0 mi South 3.5 mph - N/A   Clear
5:53 AM 44.1 °F - 42.1 °F 93% 30.02 in 10.0 mi Calm Calm - N/A   Clear
6:53 AM 44.1 °F - 42.1 °F 93% 30.01 in 10.0 mi Calm Calm - N/A   Clear
7:53 AM 50.0 °F - 46.0 °F 86% 30.01 in 10.0 mi WSW 4.6 mph - N/A   Clear
8:53 AM 57.2 °F - 46.4 °F 67% 29.95 in 10.0 mi WSW 10.4 mph - N/A   Clear
9:53 AM 63.0 °F - 45.0 °F 52% 29.95 in 10.0 mi West 15.0 mph - N/A   Clear
10:53 AM 68.0 °F - 44.1 °F 42% 29.90 in 10.0 mi SW 15.0 mph - N/A   Partly Cloudy
11:53 AM 71.1 °F - 44.1 °F 38% 29.88 in 10.0 mi West 13.8 mph - N/A   Scattered Clouds
12:53 PM 71.1 °F - 43.0 °F 36% 29.86 in 10.0 mi WNW 17.3 mph 28.8 mph N/A   Mostly Cloudy
1:53 PM 73.0 °F - 45.0 °F 37% 29.88 in 10.0 mi WNW 20.7 mph 33.4 mph N/A   Scattered Clouds
2:53 PM 73.9 °F - 41.0 °F 30% 29.88 in 10.0 mi NW 23.0 mph 33.4 mph N/A   Partly Cloudy
3:53 PM 69.1 °F - 41.0 °F 36% 29.91 in 10.0 mi NNW 18.4 mph 29.9 mph N/A   Overcast
4:53 PM 68.0 °F - 42.1 °F 39% 29.95 in 10.0 mi North 15.0 mph 28.8 mph N/A   Overcast
5:53 PM 66.0 °F - 42.1 °F 42% 29.97 in 10.0 mi NNW 16.1 mph 23.0 mph N/A   Overcast
6:53 PM 64.0 °F - 44.1 °F 48% 29.99 in 10.0 mi North 16.1 mph 26.5 mph N/A   Overcast
7:53 PM 62.1 °F - 45.0 °F 53% 30.01 in 10.0 mi NNW 17.3 mph 28.8 mph N/A   Overcast
8:53 PM 60.8 °F - 46.4 °F 59% 30.02 in 10.0 mi NNW 8.1 mph 19.6 mph N/A   Overcast
9:53 PM 59.0 °F - 46.0 °F 62% 30.06 in 10.0 mi NNW 9.2 mph - N/A   Overcast
10:53 PM 55.9 °F - 46.9 °F 72% 30.08 in 10.0 mi NNW 5.8 mph - N/A   Clear
11:53 PM 54.0 °F - 46.9 °F 77% 30.09 in 10.0 mi NNW 4.6 mph - N/A   Clear